Time,TemperatureF,DewpointF,PressureIn,WindDirection,WindDirectionDegrees,WindSpeedMPH,WindSpeedGustMPH,Humidity,HourlyPrecipIn,Conditions,Clouds,dailyrainin,SoftwareType,DateUTC
2013-01-07 00:00:00,48.6,48.3,30.26,NE,45,1.0,8.0,99,0.00,,FEW,0.00,WeatherDisplay:10.37,2013-01-07 00:00:00,
2013-01-07 00:30:00,48.4,48.1,30.25,NE,45,1.0,11.0,99,0.00,,FEW,0.00,WeatherDisplay:10.37,2013-01-07 00:30:00,
2013-01-07 01:00:00,48.2,48.0,30.25,NE,45,0.0,8.0,99,0.00,,FEW,0.00,WeatherDisplay:10.37,2013-01-07 01:00:00,
2013-01-07 01:30:00,48.4,48.1,30.24,NE,45,0.0,8.0,99,0.00,,FEW,0.00,WeatherDisplay:10.37,2013-01-07 01:30:00,
2013-01-07 02:00:00,48.4,48.1,30.24,NE,45,2.0,12.0,99,0.00,,FEW,0.00,WeatherDisplay:10.37,2013-01-07 02:00:00,
2013-01-07 02:30:00,48.4,48.1,30.22,NE,45,2.0,14.0,99,0.00,,FEW,0.00,WeatherDisplay:10.37,2013-01-07 02:30:00,
2013-01-07 03:00:00,48.4,48.1,30.22,NE,45,2.0,14.0,99,0.02,RA,FEW,0.02,WeatherDisplay:10.37,2013-01-07 03:00:00,
2013-01-07 03:30:00,48.4,48.1,30.21,NE,45,2.0,12.0,99,0.00,CLR,FEW,0.02,WeatherDisplay:10.37,2013-01-07 03:30:00,
2013-01-07 04:00:00,48.2,47.9,30.20,NE,45,1.0,8.0,99,0.00,CLR,FEW,0.02,WeatherDisplay:10.37,2013-01-07 04:00:00,
2013-01-07 04:30:00,48.3,48.0,30.19,NE,45,2.0,12.0,99,0.00,CLR,FEW,0.02,WeatherDisplay:10.37,2013-01-07 04:30:00,
2013-01-07 05:30:00,48.4,48.1,30.17,NE,45,3.0,14.0,99,0.01,RA,FEW,0.04,WeatherDisplay:10.37,2013-01-07 05:30:00,
2013-01-07 06:00:00,48.4,48.1,30.17,NE,45,5.0,13.0,99,0.00,CLR,FEW,0.04,WeatherDisplay:10.37,2013-01-07 06:00:00,
2013-01-07 06:30:00,48.6,48.3,30.15,NE,45,3.0,18.0,99,0.00,CLR,FEW,0.04,WeatherDisplay:10.37,2013-01-07 06:30:00,
2013-01-07 07:00:00,48.6,48.3,30.14,NE,45,3.0,14.0,99,0.01,CLR,FEW,0.05,WeatherDisplay:10.37,2013-01-07 07:00:00,
2013-01-07 07:30:00,48.6,48.3,30.14,NE,45,3.0,17.0,99,0.00,,FEW,0.05,WeatherDisplay:10.37,2013-01-07 07:30:00,
2013-01-07 08:00:00,48.7,48.5,30.14,NE,45,5.0,15.0,99,0.00,,FEW,0.05,WeatherDisplay:10.37,2013-01-07 08:00:00,
2013-01-07 08:30:00,48.7,48.5,30.13,NE,45,2.0,12.0,99,0.00,,FEW,0.05,WeatherDisplay:10.37,2013-01-07 08:30:00,
2013-01-07 09:00:00,48.9,48.7,30.12,NE,45,2.0,13.0,99,0.01,,FEW,0.06,WeatherDisplay:10.37,2013-01-07 09:00:00,
2013-01-07 09:30:00,49.6,49.4,30.13,NE,45,1.0,15.0,99,0.00,,FEW,0.06,WeatherDisplay:10.37,2013-01-07 09:30:00,
2013-01-07 10:00:00,49.8,49.6,30.14,NE,45,2.0,15.0,99,0.00,,FEW,0.06,WeatherDisplay:10.37,2013-01-07 10:00:00,
2013-01-07 10:30:00,50.1,49.9,30.14,NE,45,5.0,17.0,99,0.00,,FEW,0.06,WeatherDisplay:10.37,2013-01-07 10:30:00,
2013-01-07 11:00:00,50.4,50.1,30.13,NE,45,12.0,21.0,99,0.00,,FEW,0.06,WeatherDisplay:10.37,2013-01-07 11:00:00,
2013-01-07 11:30:00,50.7,50.4,30.13,NE,45,12.0,22.0,99,0.00,,FEW,0.06,WeatherDisplay:10.37,2013-01-07 11:30:00,
2013-01-07 12:00:00,50.9,50.6,30.11,NE,45,12.0,24.0,99,0.00,,FEW,0.06,WeatherDisplay:10.37,2013-01-07 12:00:00,
2013-01-07 12:30:00,50.9,50.6,30.10,NE,45,13.0,23.0,99,0.01,,FEW,0.07,WeatherDisplay:10.37,2013-01-07 12:30:00,
2013-01-07 13:00:00,50.7,50.4,30.10,NE,45,2.0,21.0,99,0.00,,FEW,0.07,WeatherDisplay:10.37,2013-01-07 13:00:00,
2013-01-07 13:30:00,51.1,50.8,30.10,NE,45,3.0,13.0,99,0.00,,FEW,0.07,WeatherDisplay:10.37,2013-01-07 13:30:00,
2013-01-07 14:00:00,51.3,51.0,30.09,NE,45,0.0,13.0,99,0.00,,FEW,0.07,WeatherDisplay:10.37,2013-01-07 14:00:00,
2013-01-07 14:30:00,51.1,50.8,30.09,NE,45,0.0,4.0,99,0.00,,FEW,0.07,WeatherDisplay:10.37,2013-01-07 14:30:00,
2013-01-07 15:00:00,51.1,50.8,30.09,NE,45,0.0,5.0,99,0.00,,FEW,0.07,WeatherDisplay:10.37,2013-01-07 15:00:00,
2013-01-07 15:30:00,51.3,51.0,30.08,NE,45,2.0,16.0,99,0.00,,FEW,0.07,WeatherDisplay:10.37,2013-01-07 15:30:00,
2013-01-07 16:00:00,51.3,51.0,30.08,NE,45,1.0,12.0,99,0.00,,FEW,0.07,WeatherDisplay:10.37,2013-01-07 16:00:00,
2013-01-07 16:30:00,50.9,50.6,30.08,NE,45,0.0,6.0,99,0.00,,FEW,0.07,WeatherDisplay:10.37,2013-01-07 16:30:00,
2013-01-07 17:00:00,51.3,51.0,30.08,NE,45,0.0,6.0,99,0.00,,FEW,0.07,WeatherDisplay:10.37,2013-01-07 17:00:00,
2013-01-07 17:30:00,51.1,50.8,30.08,NE,45,0.0,7.0,99,0.00,,FEW,0.07,WeatherDisplay:10.37,2013-01-07 17:30:00,
2013-01-07 18:00:00,50.7,50.4,30.08,NE,45,0.0,9.0,99,0.00,,FEW,0.07,WeatherDisplay:10.37,2013-01-07 18:00:00,
2013-01-07 18:30:00,51.1,50.8,30.08,NE,45,2.0,15.0,99,0.00,,FEW,0.07,WeatherDisplay:10.37,2013-01-07 18:30:00,
2013-01-07 19:00:00,51.1,50.8,30.08,NE,45,7.0,16.0,99,0.00,,FEW,0.07,WeatherDisplay:10.37,2013-01-07 19:00:00,
2013-01-07 19:30:00,51.1,50.8,30.09,NE,45,0.0,15.0,99,0.00,,FEW,0.07,WeatherDisplay:10.37,2013-01-07 19:30:00,
2013-01-07 20:00:00,50.5,50.3,30.09,NE,45,0.0,14.0,99,0.00,,FEW,0.07,WeatherDisplay:10.37,2013-01-07 20:00:00,
2013-01-07 20:30:00,50.9,50.6,30.09,NE,45,1.0,8.0,99,0.00,,FEW,0.07,WeatherDisplay:10.37,2013-01-07 20:30:00,
2013-01-07 21:00:00,50.9,50.6,30.09,NE,45,2.0,12.0,99,0.00,,FEW,0.07,WeatherDisplay:10.37,2013-01-07 21:00:00,
2013-01-07 21:30:00,51.3,51.0,30.08,NE,45,5.0,11.0,99,0.00,,FEW,0.07,WeatherDisplay:10.37,2013-01-07 21:30:00,
2013-01-07 22:00:00,51.1,50.8,30.08,NE,45,6.0,15.0,99,0.00,,FEW,0.07,WeatherDisplay:10.37,2013-01-07 22:00:00,
2013-01-07 22:30:00,51.1,50.8,30.07,NE,45,3.0,15.0,99,0.00,,FEW,0.07,WeatherDisplay:10.37,2013-01-07 22:30:00,
2013-01-07 23:00:00,50.5,50.3,30.07,NE,45,2.0,13.0,99,0.00,,FEW,0.07,WeatherDisplay:10.37,2013-01-07 23:00:00,
2013-01-07 23:30:00,50.5,50.3,30.07,NE,45,8.0,15.0,99,0.00,,FEW,0.07,WeatherDisplay:10.37,2013-01-07 23:30:00,